This demonstration page uses our WeatherBlox Daily Observations layout. Learn more.

Left ArrowRight Arrow

39.08367, -84.50855

Hourly Observations for June 23, 2021

Temp ( °F °C ) Dew Point ( °F °C ) Humidity (%) Winds ( mph kmh ) Pressure ( in mb ) Visibility ( mi km ) Precip ( " mm )
12:53 am 00:53 Clear 52 11.1 49 9.4 89 89 N N/A 30.11 1020 10 16 N/A
1:53 am 01:53 Clear 52 11.1 49 9.4 89 89 N N/A 30.12 1020 10 16 N/A
2:53 am 02:53 Clear 51 10.6 49 9.4 92 92 N N/A 30.12 1020 10 16 N/A
3:53 am 03:53 Clear 50 10 48 8.9 93 93 N N/A 30.12 1020 10 16 N/A
4:53 am 04:53 Clear 51 10.6 49 9.4 92 92 N N/A 30.13 1020 10 16 N/A
5:53 am 05:53 Clear 49 9.4 48 8.9 97 97 N N/A 30.16 1021 10 16 N/A
6:53 am 06:53 Sunny 51 10.6 49 9.4 92 92 N N/A 30.17 1022 10 16 N/A
7:53 am 07:53 Sunny 55 12.8 53 11.7 93 93 N N/A 30.18 1022 10 16 N/A
8:53 am 08:53 Sunny 60 15.6 53 11.7 78 78 N N/A 30.19 1022 10 16 N/A
9:53 am 09:53 Sunny 65 18.3 52 11.1 63 63 S 6 9 30.20 1023 10 16 N/A
10:53 am 10:53 Sunny 70 21.1 49 9.4 47 47 S 7 11 30.20 1023 10 16 N/A
11:53 am 11:53 Sunny 71 21.7 47 8.3 42 42 S 6 9 30.22 1023 10 16 N/A
12:53 pm 12:53 Sunny 73 22.8 50 10 44 44 SSE 8 13 30.20 1023 10 16 N/A
1:53 pm 13:53 Sunny 74 23.3 49 9.4 41 41 SSE 7 11 30.20 1023 10 16 N/A
2:53 pm 14:53 Sunny 75 23.9 50 10 41 41 SE 12 19 30.18 1022 10 16 N/A
3:53 pm 15:53 Sunny 74 23.3 49 9.4 41 41 SE 9 15 30.17 1022 10 16 N/A
4:53 pm 16:53 Sunny 74 23.3 51 10.6 45 45 S 9 15 30.18 1022 10 16 N/A
5:53 pm 17:53 Sunny 75 23.9 51 10.6 43 43 SSE 7 11 30.17 1022 10 16 N/A
6:53 pm 18:53 Sunny 75 23.9 50 10 41 41 SSE 7 11 30.16 1022 10 16 N/A
7:53 pm 19:53 Sunny 74 23.3 51 10.6 45 45 SSE 6 9 30.15 1021 10 16 N/A
8:53 pm 20:53 Sunny 70 21.1 52 11.1 53 53 SSE 3 6 30.15 1021 10 16 N/A
9:53 pm 21:53 Clear 62 16.7 55 12.8 78 78 N N/A 30.15 1021 10 16 N/A
10:53 pm 22:53 Clear 62 16.7 54 12.2 75 75 N N/A 30.15 1021 10 16 N/A
11:53 pm 23:53 Clear 59 15 54 12.2 83 83 N N/A 30.16 1021 10 16 N/A

Powered by AerisWeather